Regional Weather Roundup
Issued by NWS

Home | Current Version | Previous Version | Graphics & Text | Print | Product List | Glossary On
Versions: 1 2 3 4 5 6 7 8 9 10 11 12 13 14 15 16 17 18 19 20 21 22 23 24 25 26 27 28 29 30 31 32 33 34 35 36 37 38 39 40 41 42 43 44 45 46 47 48 49 50
012
ASUS43 KOAX 251602
RWRNE

WEATHER ROUNDUP FOR NEBRASKA
NATIONAL WEATHER SERVICE OMAHA NE
1000 AM CST SAT FEB 25 2017

NOTES: SATELLITE DATA IS BEING USED TO AUGMENT CLOUD COVER ABOVE
       12000 FEET.
       "FAIR" INDICATES FEW OR NO CLOUDS BELOW 12,000 FEET WITH NO
       SIGNIFICANT WEATHER AND/OR OBSTRUCTIONS TO VISIBILITY.

  * THESE STATIONS DO NOT REPORT WEATHER SUCH AS RAIN...SNOW OR FOG.

NEZ001>004-019>022-054>056-251700-
NEBRASKA PANHANDLE

CITY           SKY/WX    TMP DP  RH WIND       PRES   REMARKS
SCOTTSBLUFF    SUNNY      6   1  80 NW8       29.96F WCI  -7
ALLIANCE       SUNNY      9   5  84 W13       29.91F WCI  -7
CHADRON        SUNNY     15  10  80 SW7       29.94F WCI   5
KIMBALL        SUNNY     20  11  70 W15       29.92F WCI   6
SIDNEY         SUNNY     20  10  65 W20       29.94F WCI   4
$$

NEZ057>060-069>072-079>082-251700-
SOUTHWEST NEBRASKA

CITY           SKY/WX    TMP DP  RH WIND       PRES   REMARKS
NORTH PLATTE   SUNNY     19  13  77 SW8       30.01F WCI   9
IMPERIAL       SUNNY     23  16  74 W10       29.99F WCI  12
LEXINGTON      SUNNY     25  15  64 SW7       30.05F WCI  17
MCCOOK         SUNNY     28  21  75 SW15      30.04F WCI  16
OGALLALA       SUNNY     17  15  90 W8        29.98F WCI   6
$$

NEZ005>010-023>029-035>040-094-251700-
NORTH CENTRAL NEBRASKA

CITY           SKY/WX    TMP DP  RH WIND       PRES   REMARKS
VALENTINE      SUNNY      7   2  80 SW7       29.94F WCI  -5
AINSWORTH      SUNNY     17  13  84 SW15      29.94F WCI   2
BROKEN BOW     PTSUNNY   20  14  77 SW8       30.01F WCI  10
O`NEILL        CLOUDY    18  11  75 SW9       30.02F WCI   7
ORD            CLOUDY    13   9  84 SE3       30.04F
THEDFORD       CLOUDY    16  14  90 W7        29.96F WCI   7
$$

NEZ041-046>049-061>064-073>077-083>087-251700-
SOUTH CENTRAL NEBRASKA

CITY           SKY/WX    TMP DP  RH WIND       PRES   REMARKS
GRAND ISLAND   MOSUNNY   21  14  74 CALM      30.10F
AURORA         PTSUNNY   19  14  79 CALM      30.11F
HASTINGS       SUNNY     22  15  75 SW3       30.11F
HEBRON         SUNNY     22  16  76 W3        30.16S
HOLDREGE       SUNNY     23  14  69 SW7       30.07F WCI  14
KEARNEY *      SUNNY     19  12  73 SW8       30.09F WCI   9
YORK           CLOUDY    18  14  86 W3        30.12F
$$

NEZ011>018-030>034-042>045-251700-
NORTHEAST NEBRASKA

CITY           SKY/WX    TMP DP  RH WIND       PRES   REMARKS
NORFOLK        CLOUDY    19  11  70 VRB6      30.08S WCI  11
ALBION         CLOUDY    18   9  69 CALM      30.08F
BLAIR          CLOUDY    20  15  80 SW5       30.11F WCI  13
FREMONT        CLOUDY    22  15  76 W5        30.13S WCI  15
TEKAMAH        CLOUDY    20  13  74 W5        30.12F WCI  13
WAYNE          CLOUDY    20  14  77 SW7       30.09R WCI  11
$$

NEZ050>053-065>068-078-088>093-251700-
SOUTHEAST NEBRASKA

CITY           SKY/WX    TMP DP  RH WIND       PRES   REMARKS
LINCOLN        CLOUDY    21  13  71 W8        30.17S WCI  11
OMAHA EPPLEY   CLOUDY    24  15  68 NW3       30.14F
BEATRICE       CLOUDY    22  17  79 W9        30.16S WCI  12
FALLS CITY     CLOUDY    24  16  71 NW7       30.17S WCI  16
NEBRASKA CITY  CLOUDY    23  13  68 NW6       30.15S WCI  15
PLATTSMOUTH    CLOUDY    22  13  69 NW3       30.13F
$$

NEZ044-045-051>053-067-251700-
OMAHA AREA

CITY           SKY/WX    TMP DP  RH WIND       PRES   REMARKS
OMAHA EPPLEY   CLOUDY    24  15  68 NW3       30.14F
BLAIR          CLOUDY    20  15  80 SW5       30.11F WCI  13
FREMONT        CLOUDY    22  15  76 W5        30.13S WCI  15
MILLARD        CLOUDY    25  15  66 NW5       30.14F WCI  19
OFFUTT AFB     CLOUDY    22  13  69 NW5       30.14F WCI  16
PLATTSMOUTH    CLOUDY    22  13  69 NW3       30.13F
WAHOO          FAIR      21  14  74 SW6       30.14R WCI  13
$$




USA.gov is the U.S. government's official web portal to all federal, state and local government web resources and services.